Home > Time Zones > World Clock > Weather > U.S.A. > Adak > Past weeks

Flag for U.S.A. Weather past 2 weeks in Adak, Alaska, U.S.A.

45 °F

Broken clouds.

Feels Like: 40 °F
Forecast: 44 / 48 °F
Wind: 8 mph from Northwest

Location: Adak

Current Time: Oct 9, 2015 at 1:14:52 PM

Latest Report: Oct 9, 2015 at 12:16 PM

Visibility: 10 mi

Pressure: 29.60 "Hg

Humidity: 66%

Dew point: 34 °F

Location of AdakLocation

Historic Weather in Adak — Graph


Adak temperature yesterday

Maximum temperature yesterday: 48 °F (at 3:16 PM)
Minimum temperature yesterday: 41 °F (at 2:16 AM)
Average temperature yesterday: 44 °F

Past Weeks' High & Low Weather Summary

High61 °F (Sep 26, 2:36 PM)82% (Sep 25, 11:36 PM)30.33 "Hg (Sep 25, 11:36 PM)
Low30 °F (Sep 29, 7:36 AM)41% (Sep 29, 3:16 PM)29.30 "Hg (Oct 1, 12:16 AM)
Average50 °F69%29.88 "Hg
* Reported Sep 24 11:16 AM — Oct 9 11:36 AM, Adak, Weather by CustomWeather, © 2015

Note: Actual official high and low records may vary slightly from our data, if they occured in-between our weather recording intervals... More about our weather records


Adak weather history for previous 24 hours

Time TempWeatherWind HumidityBarometerVisibility
11:36 AM
Fri, Oct 9
45 °FBroken clouds.14 mph61%29.60 "Hg10 mi
11:16 AM45 °FMostly cloudy.10 mph66%29.60 "Hg10 mi
10:56 AM45 °FScattered clouds.8 mph66%29.60 "Hg10 mi
10:36 AM45 °FScattered clouds.12 mph61%29.60 "Hg10 mi
10:16 AM45 °FPartly sunny.10 mph57%29.60 "Hg10 mi
9:56 AM45 °FMore clouds than sun.7 mph66%29.60 "Hg10 mi
9:36 AM45 °FOvercast.8 mph66%29.59 "Hg10 mi
9:16 AM43 °FBroken clouds.14 mph71%29.59 "Hg10 mi
8:56 AM43 °FMostly cloudy.10 mph71%29.58 "Hg8 mi
8:36 AM43 °FPassing clouds.12 mph71%29.58 "Hg10 mi
8:16 AM43 °FPassing clouds.6 mph71%29.58 "Hg10 mi
7:56 AM43 °FMostly cloudy.10 mph71%29.58 "Hg10 mi
7:36 AM43 °FPartly cloudy.12 mph71%29.58 "Hg5 mi
7:16 AM43 °FPassing clouds.7 mph71%29.58 "Hg10 mi
6:56 AM45 °FPartly cloudy.13 mph71%29.58 "Hg10 mi
6:36 AM43 °FPassing clouds.9 mph71%29.58 "Hg10 mi
6:16 AM43 °FPartly cloudy.12 mph76%29.58 "Hg10 mi
5:36 AM43 °FPartly cloudy.8 mph76%29.58 "Hg9 mi
5:16 AM45 °FOvercast.10 mph76%29.59 "Hg8 mi
4:56 AM45 °FOvercast.5 mph71%29.59 "Hg10 mi
4:36 AM45 °FOvercast.7 mph71%29.59 "Hg10 mi
4:16 AM45 °FPartly cloudy.9 mph71%29.59 "Hg5 mi
3:56 AM43 °FPartly cloudy.6 mph71%29.59 "Hg10 mi
3:36 AM43 °FPassing clouds.8 mph71%29.60 "Hg9 mi
3:16 AM43 °FPassing clouds.6 mph76%29.60 "Hg9 mi
2:56 AM45 °FOvercast.12 mph71%29.60 "Hg5 mi
2:36 AM43 °FPassing clouds.7 mph76%29.60 "Hg10 mi
2:16 AM45 °FMostly cloudy.8 mph66%29.60 "Hg10 mi
1:56 AM45 °FPartly cloudy.9 mph71%29.60 "Hg5 mi
1:36 AM43 °FPassing clouds.6 mph71%29.60 "Hg10 mi
1:16 AM45 °FPartly cloudy.9 mph71%29.60 "Hg10 mi
12:56 AM43 °FPassing clouds.8 mph71%29.60 "Hg10 mi
12:36 AM45 °FMostly cloudy.9 mph71%29.60 "Hg10 mi
12:16 AM45 °FMostly cloudy.8 mph71%29.60 "Hg10 mi
11:56 PM
Thu, Oct 8
45 °FOvercast.8 mph71%29.60 "Hg10 mi
11:36 PM43 °FPartly cloudy.3 mph76%29.60 "Hg10 mi
11:16 PM43 °FPartly cloudy.3 mph76%29.59 "Hg10 mi
10:56 PM45 °FPassing clouds.6 mph71%29.59 "Hg10 mi
10:36 PM45 °FPartly cloudy.7 mph71%29.58 "Hg10 mi
10:16 PM45 °FPassing clouds.5 mph76%29.58 "Hg10 mi
9:56 PM45 °FPartly cloudy.9 mph76%29.57 "Hg9 mi
9:36 PM45 °FPassing clouds.12 mph71%29.56 "Hg10 mi
9:16 PM45 °FPassing clouds.14 mph76%29.55 "Hg9 mi
8:56 PM45 °FPassing clouds.14 mph71%29.55 "Hg10 mi
8:36 PM45 °FPassing clouds.13 mph71%29.55 "Hg10 mi
8:16 PM45 °FPassing clouds.14 mph71%29.54 "Hg10 mi
7:56 PM46 °FMostly cloudy.13 mph71%29.54 "Hg9 mi
7:36 PM46 °FBroken clouds.10 mph71%29.54 "Hg6 mi
7:16 PM46 °FMostly cloudy.14 mph66%29.53 "Hg10 mi
6:36 PM46 °FMostly cloudy.12 mph66%29.53 "Hg5 mi
5:56 PM46 °FMore clouds than sun.10 mph71%29.52 "Hg7 mi
5:36 PM46 °FMore clouds than sun.12 mph71%29.52 "Hg8 mi
5:16 PM46 °FCloudy.No wind71%29.51 "Hg4 mi
4:56 PM46 °FCloudy.6 mph66%29.51 "Hg3 mi
4:36 PM46 °FMostly cloudy.No wind71%29.52 "Hg8 mi
4:16 PM46 °FMostly cloudy.8 mph71%29.52 "Hg8 mi
3:56 PM46 °FMostly cloudy.7 mph66%29.52 "Hg3 mi
3:36 PM46 °FMostly cloudy.9 mph66%29.52 "Hg8 mi
3:16 PM48 °FMore clouds than sun.12 mph62%29.52 "Hg10 mi
2:56 PM46 °FMostly cloudy.14 mph66%29.53 "Hg5 mi
2:36 PM46 °FMostly cloudy.13 mph66%29.53 "Hg9 mi
2:16 PM46 °FMore clouds than sun.12 mph71%29.53 "Hg3 mi
1:56 PM46 °FCloudy.12 mph66%29.54 "Hg3 mi
1:36 PM46 °FMostly cloudy.15 mph71%29.54 "Hg10 mi
Weather by CustomWeather, © 2015

See weather overviewHow to use our weather pages